DLH4A EHAM-EDDF

Flight info

Callsign DLH4A
Flight time 0h 48m
Altitude 33000
Route EDUPO Z739 MISGO DCT LIPMI DCT TANJO DCT COL DCT ROLIS ROLIS5D
Aircraft A319/M-SDE3FGHIRWY/LB1

Departure

Time 2026-05-01 14:25
Airport Amsterdam Airport Schiphol (EHAM)

Arrival

Time 2026-05-01 15:13
Airport Frankfurt Main Airport (EDDF)
Time Latitude Longitude Altitude Speed Heading
2026-05-01 11:56 52.30442 4.76322 -1 ft 0 kts 238°
2026-05-01 14:14 52.30450 4.76344 -1 ft 4 kts 240°
2026-05-01 14:14 52.30465 4.76380 -1 ft 4 kts 214°
2026-05-01 14:14 52.30477 4.76387 -1 ft 0 kts 159°
2026-05-01 14:18 52.30471 4.76391 -1 ft 3 kts 152°
2026-05-01 14:18 52.30448 4.76418 -1 ft 5 kts 145°
2026-05-01 14:18 52.30416 4.76455 -1 ft 6 kts 146°
2026-05-01 14:18 52.30389 4.76484 -1 ft 8 kts 148°
2026-05-01 14:19 52.30333 4.76567 -1 ft 9 kts 106°
2026-05-01 14:19 52.30352 4.76670 -1 ft 10 kts 65°
2026-05-01 14:19 52.30392 4.76774 -1 ft 11 kts 57°
2026-05-01 14:19 52.30435 4.76891 -1 ft 13 kts 58°
2026-05-01 14:20 52.30447 4.77024 -1 ft 13 kts 126°
2026-05-01 14:20 52.30496 4.77302 -1 ft 15 kts 58°
2026-05-01 14:20 52.30554 4.77453 -1 ft 16 kts 55°
2026-05-01 14:21 52.30639 4.77577 -1 ft 17 kts 24°
2026-05-01 14:21 52.30758 4.77598 -1 ft 17 kts
2026-05-01 14:21 52.30879 4.77609 -1 ft 17 kts
2026-05-01 14:22 52.31127 4.77630 -1 ft 18 kts
2026-05-01 14:22 52.31251 4.77642 -1 ft 18 kts
2026-05-01 14:22 52.31376 4.77653 -1 ft 17 kts
2026-05-01 14:22 52.31472 4.77616 -1 ft 13 kts 327°
2026-05-01 14:23 52.31546 4.77560 -1 ft 12 kts
2026-05-01 14:23 52.31588 4.77670 -1 ft 13 kts 88°
2026-05-01 14:23 52.31592 4.77819 -1 ft 14 kts 87°
2026-05-01 14:23 52.31565 4.77950 1 ft 11 kts 149°
2026-05-01 14:24 52.31498 4.77959 1 ft 10 kts 183°
2026-05-01 14:24 52.31352 4.77945 -1 ft 52 kts 183°
2026-05-01 14:24 52.30715 4.77886 -2 ft 127 kts 183°
2026-05-01 14:24 52.29721 4.77799 406 ft 148 kts 180°
2026-05-01 14:25 52.28663 4.77728 1062 ft 156 kts 181°
2026-05-01 14:25 52.27576 4.78013 1735 ft 165 kts 154°
2026-05-01 14:25 52.26532 4.78963 2412 ft 178 kts 149°
2026-05-01 14:25 52.25741 4.80590 2955 ft 200 kts 112°
2026-05-01 14:26 52.25489 4.82949 3468 ft 222 kts 98°
2026-05-01 14:26 52.25370 4.88196 4921 ft 251 kts 95°
2026-05-01 14:26 52.25322 4.91155 5607 ft 268 kts 95°
2026-05-01 14:27 52.25270 4.94237 6559 ft 274 kts 96°
2026-05-01 14:27 52.25208 4.97372 7511 ft 278 kts 96°
2026-05-01 14:27 52.25139 5.00550 8501 ft 282 kts 96°
2026-05-01 14:28 52.24965 5.07033 10404 ft 291 kts 96°
2026-05-01 14:28 52.24863 5.10452 10851 ft 313 kts 96°
2026-05-01 14:28 52.24747 5.14126 11214 ft 335 kts 96°
2026-05-01 14:28 52.24633 5.17852 11880 ft 344 kts 96°
2026-05-01 14:29 52.24501 5.21709 12694 ft 347 kts 99°
2026-05-01 14:29 52.23984 5.25546 13519 ft 346 kts 112°
2026-05-01 14:30 52.20187 5.35457 15771 ft 352 kts 128°
2026-05-01 14:30 52.18762 5.38723 16478 ft 356 kts 127°
2026-05-01 14:30 52.17319 5.42026 17179 ft 360 kts 128°
2026-05-01 14:31 52.14385 5.48741 18586 ft 368 kts 127°
2026-05-01 14:31 52.12919 5.52105 19208 ft 371 kts 127°
2026-05-01 14:31 52.11416 5.55550 19807 ft 375 kts 127°
2026-05-01 14:31 52.09896 5.59026 20418 ft 379 kts 126°
2026-05-01 14:32 52.08374 5.62503 21004 ft 383 kts 126°
2026-05-01 14:32 52.07346 5.64847 21440 ft 385 kts 126°
2026-05-01 14:32 52.05134 5.69474 22244 ft 389 kts 131°
2026-05-01 14:32 52.03346 5.72800 22852 ft 392 kts 131°
2026-05-01 14:33 52.01544 5.76150 23413 ft 396 kts 131°
2026-05-01 14:33 51.99717 5.79546 23840 ft 402 kts 131°
2026-05-01 14:33 51.97896 5.82934 24286 ft 406 kts 131°
2026-05-01 14:33 51.96035 5.86403 24690 ft 411 kts 131°
2026-05-01 14:34 51.94155 5.89918 25171 ft 412 kts 131°
2026-05-01 14:34 51.92273 5.93438 25649 ft 415 kts 130°
2026-05-01 14:34 51.90376 5.96986 26053 ft 418 kts 131°
2026-05-01 14:34 51.88466 6.00548 26521 ft 420 kts 131°
2026-05-01 14:35 51.86534 6.04132 26949 ft 424 kts 131°
2026-05-01 14:35 51.84612 6.07690 27334 ft 428 kts 131°
2026-05-01 14:35 51.82643 6.11317 27751 ft 431 kts 131°
2026-05-01 14:35 51.80655 6.14967 28158 ft 434 kts 131°
2026-05-01 14:36 51.78648 6.18642 28549 ft 438 kts 131°
2026-05-01 14:36 51.76627 6.22341 28951 ft 441 kts 131°
2026-05-01 14:36 51.74590 6.26060 29332 ft 444 kts 131°
2026-05-01 14:36 51.73232 6.28532 29582 ft 446 kts 131°
2026-05-01 14:37 51.71166 6.32284 29956 ft 449 kts 131°
2026-05-01 14:37 51.69087 6.36059 30294 ft 452 kts 131°
2026-05-01 14:37 51.66311 6.41096 30696 ft 456 kts 131°
2026-05-01 14:37 51.64887 6.43682 30897 ft 457 kts 131°
2026-05-01 14:38 51.62081 6.48778 31289 ft 461 kts 131°
2026-05-01 14:38 51.59958 6.52625 31720 ft 459 kts 132°
2026-05-01 14:38 51.58549 6.55170 32001 ft 459 kts 132°
2026-05-01 14:38 51.56426 6.58996 32375 ft 460 kts 132°
2026-05-01 14:39 51.54298 6.62829 32630 ft 459 kts 132°
2026-05-01 14:39 51.52171 6.66658 32893 ft 459 kts 132°
2026-05-01 14:39 51.50044 6.70476 33154 ft 459 kts 132°
2026-05-01 14:39 51.47237 6.75503 33274 ft 454 kts 132°
2026-05-01 14:40 51.45131 6.79270 33265 ft 454 kts 132°
2026-05-01 14:40 51.41631 6.85517 33266 ft 454 kts 132°
2026-05-01 14:41 51.37008 6.92385 33275 ft 454 kts 140°
2026-05-01 14:41 51.32249 6.98944 33274 ft 451 kts 140°
2026-05-01 14:42 51.27493 7.05488 32942 ft 450 kts 140°
2026-05-01 14:42 51.25123 7.08752 32684 ft 450 kts 139°
2026-05-01 14:42 51.22752 7.12007 32424 ft 449 kts 139°
2026-05-01 14:42 51.20412 7.15210 32163 ft 450 kts 139°
2026-05-01 14:43 51.18040 7.18452 31513 ft 448 kts 139°
2026-05-01 14:43 51.15680 7.21670 30834 ft 445 kts 139°
2026-05-01 14:43 51.13334 7.24865 30102 ft 443 kts 138°
2026-05-01 14:43 51.10889 7.27820 29366 ft 440 kts 146°
2026-05-01 14:44 51.08295 7.30363 28671 ft 436 kts 147°
2026-05-01 14:44 51.03174 7.35357 27304 ft 428 kts 147°
2026-05-01 14:44 51.00648 7.37824 26634 ft 424 kts 147°
2026-05-01 14:45 50.98179 7.40234 25986 ft 421 kts 147°
2026-05-01 14:45 50.93233 7.45043 24678 ft 413 kts 147°
2026-05-01 14:45 50.90792 7.47406 24037 ft 410 kts 147°
2026-05-01 14:46 50.88371 7.49747 23342 ft 406 kts 147°
2026-05-01 14:46 50.83619 7.54339 22202 ft 395 kts 148°
2026-05-01 14:46 50.81283 7.56590 21685 ft 391 kts 148°
2026-05-01 14:47 50.79002 7.58773 21168 ft 387 kts 149°
2026-05-01 14:47 50.76582 7.60598 20673 ft 384 kts 156°
2026-05-01 14:47 50.74129 7.62232 20177 ft 381 kts 156°
2026-05-01 14:48 50.69289 7.65455 19206 ft 374 kts 156°
2026-05-01 14:48 50.66903 7.67044 18706 ft 371 kts 156°
2026-05-01 14:48 50.62189 7.70185 17636 ft 364 kts 156°
2026-05-01 14:49 50.57604 7.73226 16625 ft 357 kts 156°
2026-05-01 14:49 50.53054 7.76223 15584 ft 352 kts 156°
2026-05-01 14:50 50.49319 7.78685 14715 ft 348 kts 156°
2026-05-01 14:50 50.44151 7.82159 13431 ft 342 kts 151°
2026-05-01 14:51 50.42164 7.84176 12874 ft 340 kts 141°
2026-05-01 14:51 50.38503 7.88739 11729 ft 337 kts 142°
2026-05-01 14:52 50.34865 7.93234 10881 ft 324 kts 142°
2026-05-01 14:52 50.33140 7.95364 10759 ft 308 kts 142°
2026-05-01 14:52 50.29917 7.99345 10491 ft 284 kts 142°
2026-05-01 14:53 50.28384 8.01237 10346 ft 279 kts 142°
2026-05-01 14:53 50.27008 8.03357 10307 ft 278 kts 129°
2026-05-01 14:53 50.26062 8.05953 10306 ft 282 kts 113°
2026-05-01 14:53 50.25525 8.08907 10311 ft 283 kts 106°
2026-05-01 14:54 50.25054 8.11897 10311 ft 283 kts 106°
2026-05-01 14:54 50.24580 8.14880 10183 ft 283 kts 107°
2026-05-01 14:54 50.24104 8.17851 9913 ft 281 kts 105°
2026-05-01 14:54 50.23627 8.20820 9661 ft 281 kts 106°
2026-05-01 14:55 50.23147 8.23767 9441 ft 279 kts 107°
2026-05-01 14:55 50.22666 8.26698 9317 ft 278 kts 107°
2026-05-01 14:55 50.22186 8.29625 9177 ft 278 kts 107°
2026-05-01 14:55 50.21716 8.32503 9053 ft 278 kts 106°
2026-05-01 14:56 50.21164 8.35378 8918 ft 275 kts 115°
2026-05-01 14:56 50.20157 8.37879 8793 ft 271 kts 133°
2026-05-01 14:56 50.18737 8.39764 8666 ft 268 kts 149°
2026-05-01 14:56 50.17043 8.40945 8539 ft 267 kts 160°
2026-05-01 14:57 50.15300 8.41931 8411 ft 267 kts 160°
2026-05-01 14:57 50.11706 8.41914 8152 ft 271 kts 207°
2026-05-01 14:57 50.10331 8.39956 8029 ft 278 kts 234°
2026-05-01 14:58 50.09546 8.37184 7908 ft 281 kts 247°
2026-05-01 14:58 50.08861 8.34334 7772 ft 281 kts 247°
2026-05-01 14:58 50.08180 8.31484 7658 ft 280 kts 247°
2026-05-01 14:58 50.07497 8.28642 7534 ft 280 kts 246°
2026-05-01 14:59 50.06813 8.25814 7405 ft 279 kts 246°
2026-05-01 14:59 50.06128 8.22986 7302 ft 278 kts 246°
2026-05-01 14:59 50.05443 8.20173 7173 ft 278 kts 246°
2026-05-01 14:59 50.04758 8.17367 7057 ft 277 kts 246°
2026-05-01 15:00 50.03400 8.11810 6809 ft 276 kts 245°
2026-05-01 15:00 50.02717 8.09025 6693 ft 275 kts 246°
2026-05-01 15:00 50.02037 8.06248 6563 ft 275 kts 246°
2026-05-01 15:01 50.01359 8.03473 6437 ft 275 kts 246°
2026-05-01 15:01 50.00683 8.00702 6309 ft 274 kts 246°
2026-05-01 15:01 50.00014 7.97954 6174 ft 267 kts 245°
2026-05-01 15:01 49.99374 7.95320 6047 ft 254 kts 245°
2026-05-01 15:02 49.98763 7.92807 5922 ft 244 kts 245°
2026-05-01 15:02 49.98366 7.91184 5839 ft 242 kts 245°
2026-05-01 15:02 49.97233 7.88330 5668 ft 232 kts 218°
2026-05-01 15:02 49.95871 7.87095 5538 ft 226 kts 195°
2026-05-01 15:03 49.94339 7.86711 5404 ft 222 kts 176°
2026-05-01 15:03 49.92838 7.87198 5279 ft 221 kts 156°
2026-05-01 15:03 49.91555 7.88493 5154 ft 222 kts 135°
2026-05-01 15:03 49.90657 7.90437 5045 ft 224 kts 116°
2026-05-01 15:04 49.90279 7.92776 5012 ft 227 kts 95°
2026-05-01 15:04 49.90495 7.95212 5011 ft 232 kts 77°
2026-05-01 15:04 49.91036 7.97580 5009 ft 233 kts 72°
2026-05-01 15:04 49.91625 7.99936 5015 ft 235 kts 72°
2026-05-01 15:05 49.92208 8.02292 5005 ft 234 kts 72°
2026-05-01 15:05 49.92779 8.04623 5008 ft 233 kts 73°
2026-05-01 15:05 49.93339 8.06902 5001 ft 219 kts 73°
2026-05-01 15:05 49.93864 8.09048 5003 ft 207 kts 74°
2026-05-01 15:06 49.94361 8.11087 5007 ft 198 kts 74°
2026-05-01 15:06 49.94841 8.13059 5007 ft 194 kts 74°
2026-05-01 15:06 49.95312 8.14989 5026 ft 185 kts 74°
2026-05-01 15:06 49.95752 8.16789 4945 ft 175 kts 75°
2026-05-01 15:07 49.96176 8.18533 4729 ft 171 kts 75°
2026-05-01 15:07 49.96591 8.20245 4504 ft 169 kts 75°
2026-05-01 15:07 49.96998 8.21924 4262 ft 169 kts 74°
2026-05-01 15:07 49.97414 8.23634 4007 ft 169 kts 72°
2026-05-01 15:08 49.97826 8.25331 3791 ft 167 kts 73°
2026-05-01 15:08 49.98234 8.27014 3552 ft 166 kts 72°
2026-05-01 15:08 49.98636 8.28675 3322 ft 163 kts 71°
2026-05-01 15:08 49.99037 8.30328 3097 ft 162 kts 72°
2026-05-01 15:09 49.99433 8.31969 2860 ft 162 kts 73°
2026-05-01 15:09 49.99832 8.33620 2624 ft 163 kts 73°
2026-05-01 15:09 50.00228 8.35260 2401 ft 162 kts 73°
2026-05-01 15:09 50.00625 8.36903 2160 ft 161 kts 72°
2026-05-01 15:10 50.00998 8.38439 1959 ft 143 kts 72°
2026-05-01 15:10 50.01637 8.41093 1577 ft 125 kts 73°
2026-05-01 15:10 50.01937 8.42340 1400 ft 122 kts 72°
2026-05-01 15:11 50.02233 8.43573 1238 ft 122 kts 73°
2026-05-01 15:11 50.02835 8.46034 924 ft 120 kts 72°
2026-05-01 15:11 50.03132 8.47255 743 ft 123 kts 74°
2026-05-01 15:12 50.03419 8.48524 490 ft 123 kts 70°
2026-05-01 15:12 50.03993 8.50909 327 ft 100 kts 70°
2026-05-01 15:12 50.04175 8.51671 333 ft 50 kts 69°
2026-05-01 15:13 50.04205 8.52435 346 ft 18 kts 100°
2026-05-01 15:14 50.04229 8.52794 355 ft 17 kts 70°
2026-05-01 15:14 50.04268 8.52961 353 ft 16 kts 69°
2026-05-01 15:14 50.04340 8.53257 364 ft 11 kts 69°
2026-05-01 15:15 50.04393 8.53491 375 ft 12 kts 77°
2026-05-01 15:15 50.04413 8.53788 375 ft 19 kts 84°
2026-05-01 15:16 50.04442 8.54227 375 ft 20 kts 83°
2026-05-01 15:16 50.04423 8.54611 369 ft 17 kts 119°
2026-05-01 15:17 50.04208 8.54837 354 ft 21 kts 159°
2026-05-01 15:18 50.04034 8.55086 353 ft 9 kts 69°
2026-05-01 15:18 50.04058 8.55182 356 ft 10 kts 69°
2026-05-01 15:19 50.04144 8.55541 354 ft 11 kts 69°
2026-05-01 15:19 50.04188 8.55726 356 ft 7 kts 69°
2026-05-01 15:19 50.04211 8.55824 354 ft 11 kts 70°
2026-05-01 15:20 50.04244 8.56004 356 ft 7 kts 108°
2026-05-01 15:20 50.04210 8.56044 356 ft 6 kts 161°
2026-05-01 15:20 50.04174 8.56063 355 ft 3 kts 160°
2026-05-01 15:21 50.04163 8.56070 356 ft 0 kts 159°